GFSNW_700_spd_363.txt.gz
Wind_Speed
50 39 46 32 29 27 26 30 32 29 30 36 44 50 49 43 26 27 22 19 23 20 24 21 18 31 25 27 27 29 22 25 27 33 20 14 23 20 20 21 14 16 13 18
44 52 40 31 30 23 25 32 30 24 24 38 45 44 44 39 38 36 27 20 30 20 21 10 16 16 25 25 27 32 31 11 16 13 32 22 22 23 23 19 15 21 16 20
37 43 36 33 31 26 25 31 29 27 29 37 34 42 38 38 38 39 31 21 23 29 21 16 9 10 13 15 24 26 27 22 18 22 20 15 18 21 22 22 20 23 27 25
31 45 46 34 34 30 26 33 28 26 27 33 36 28 27 25 26 35 30 29 26 22 22 21 21 12 9 14 17 22 26 24 22 17 14 21 26 19 22 32 29 27 30 29
30 35 47 37 35 33 31 30 34 37 38 15 30 33 37 29 28 28 33 34 28 23 25 23 23 21 15 14 17 19 22 22 23 25 20 17 20 21 21 17 22 25 27 27
26 31 53 26 38 40 35 28 37 30 37 31 21 38 33 32 25 25 24 31 24 26 22 27 26 27 22 14 17 15 18 19 19 18 20 15 25 25 22 21 19 19 24 22
24 26 40 40 36 36 32 30 24 26 24 35 26 24 37 31 25 21 27 25 28 28 27 28 24 22 19 17 17 21 19 16 12 6 12 7 12 21 22 19 23 23 23 23
23 23 35 39 27 31 33 28 22 33 24 25 27 23 27 30 25 22 25 29 32 35 27 25 23 20 19 20 21 25 22 20 10 7 15 19 18 16 17 10 15 23 26 22
22 24 25 44 25 34 31 24 21 30 24 16 26 23 24 35 33 27 24 31 28 28 28 23 21 16 21 11 13 23 26 25 23 14 5 8 17 25 22 24 23 22 23 25
21 19 21 45 36 33 31 23 19 31 28 23 29 20 22 14 28 29 32 30 27 24 25 24 15 15 11 9 14 13 22 28 29 25 16 18 20 18 15 16 14 22 17 17
20 19 20 28 37 28 34 23 20 21 34 29 21 22 25 19 16 27 26 28 26 25 19 20 14 12 19 20 20 16 18 20 29 29 26 18 13 15 19 13 18 21 25 27
21 21 21 25 30 31 33 25 21 19 24 14 17 19 15 20 17 17 14 18 16 18 22 19 19 10 15 17 18 25 17 19 19 15 18 20 12 16 17 16 16 22 23 24
22 24 23 30 24 34 31 20 19 19 28 12 24 16 17 17 18 13 21 17 18 20 25 21 16 11 17 19 19 19 19 13 9 11 16 15 20 15 12 5 11 17 22 25
25 26 28 31 30 35 30 25 19 20 21 18 12 14 13 10 10 12 14 13 12 13 18 23 22 19 17 18 19 23 22 18 14 13 11 12 12 12 13 12 14 20 25 27
26 25 32 31 33 35 30 24 25 23 18 15 15 15 18 19 22 22 22 21 19 16 20 22 23 20 20 22 27 30 25 20 16 16 13 13 17 17 17 20 22 24 26 28
26 27 28 29 43 36 33 29 29 27 22 12 11 13 16 19 22 21 20 18 17 17 19 19 21 23 21 18 31 34 27 29 28 28 27 28 29 30 30 30 31 32 32 35
21 30 30 37 43 37 33 28 29 28 19 13 11 12 14 15 15 14 14 12 13 14 16 17 16 14 19 27 33 23 15 20 25 33 38 40 40 40 40 41 42 42 42 42
25 27 36 40 38 32 27 23 29 28 19 13 6 10 15 14 12 11 10 10 11 12 13 13 16 15 21 25 29 24 21 22 29 34 30 31 33 34 37 39 40 42 44 42
30 42 43 39 35 29 27 27 30 27 16 10 11 17 18 15 14 9 9 7 5 7 8 9 10 16 17 22 16 11 9 12 12 16 21 24 27 30 33 34 35 36 37 37
42 39 40 35 31 29 25 29 29 26 14 8 15 15 14 16 13 10 5 3 3 3 2 7 10 18 13 14 13 20 17 15 20 22 25 26 26 22 22 23 24 27 30 34
45 46 38 35 36 31 25 20 20 18 11 14 15 10 14 15 9 7 3 2 1 1 2 5 5 14 12 10 15 15 11 25 24 25 24 22 22 24 24 24 28 31 34 37
49 45 38 39 30 18 8 16 17 14 15 23 21 16 14 18 14 7 5 4 4 4 5 7 7 15 9 9 14 9 16 19 20 19 20 22 22 23 24 23 25 28 31 32
40 41 36 28 13 15 13 18 18 16 24 30 27 21 16 16 14 7 5 4 5 4 5 5 13 8 13 15 14 17 20 22 20 16 15 15 18 20 22 25 29 32 30 29
41 31 21 14 9 13 11 24 32 23 27 29 29 25 18 14 13 7 3 3 2 3 5 12 10 15 17 17 23 27 18 15 12 13 16 17 18 21 23 24 27 30 31 25
27 12 11 14 10 18 12 20 24 20 27 29 27 23 15 12 7 5 4 3 5 7 11 11 16 17 11 10 5 13 13 11 18 21 20 18 17 18 19 21 24 29 28 32
21 8 16 20 25 24 27 25 26 24 27 26 24 19 8 9 6 8 8 5 6 8 9 16 18 14 13 14 13 14 14 16 18 21 23 19 19 19 20 22 23 24 24 25
13 17 23 28 27 27 27 27 27 28 26 26 22 12 8 9 7 6 8 5 7 9 12 15 18 20 19 22 23 21 22 25 26 26 27 26 21 22 23 27 27 27 26 23

GFSNW_700_spd_369.txt.gz
Wind_Speed
32 31 31 30 29 28 33 43 43 34 29 37 46 56 62 55 42 28 31 21 24 28 18 30 38 32 23 25 34 40 40 24 37 31 24 17 18 20 25 26 10 13 16 24
31 31 30 28 26 28 30 33 41 38 31 39 46 55 59 51 41 41 30 27 18 21 27 17 22 25 31 30 27 36 38 40 22 20 26 30 28 28 24 34 29 27 14 13
30 29 28 27 25 28 28 25 34 41 33 39 44 51 54 49 44 38 42 29 23 19 22 24 13 18 19 23 34 31 30 39 41 32 24 20 23 25 22 23 29 22 26 22
29 28 25 24 24 27 28 30 33 31 29 38 43 34 42 50 42 48 38 37 32 24 23 25 27 16 16 20 24 31 35 38 41 37 33 31 22 29 27 24 24 24 24 23
28 26 23 22 23 28 27 27 31 33 36 31 36 43 33 37 37 44 51 47 37 28 27 26 14 27 18 15 20 24 31 21 31 30 29 32 30 23 23 24 23 22 19 21
25 22 21 22 23 28 31 27 33 27 34 30 31 41 46 36 36 38 43 42 44 44 33 28 24 20 25 21 17 21 23 25 22 21 25 25 25 30 29 27 28 23 20 17
21 20 19 20 23 31 28 26 30 30 31 33 36 19 37 42 36 34 26 37 35 40 40 31 26 25 23 29 24 21 20 21 18 12 19 5 18 23 25 25 27 28 26 21
18 19 19 20 24 26 26 26 33 35 38 32 29 35 40 18 50 35 36 31 36 28 24 29 22 20 18 21 25 28 25 22 15 11 20 7 12 18 23 25 25 24 22 20
20 18 19 20 24 23 25 30 34 27 30 26 24 30 23 30 30 43 36 33 25 32 31 29 22 16 18 14 20 27 28 27 25 16 8 8 18 20 18 20 24 19 20 19
18 19 18 19 21 18 22 33 23 25 29 26 21 22 20 23 22 32 38 26 23 33 33 31 25 22 21 19 26 22 24 28 28 23 14 9 17 24 24 21 21 23 27 27
17 19 19 20 23 22 25 29 14 22 25 13 16 18 17 21 23 27 32 30 31 36 31 27 23 15 23 21 21 26 31 27 23 18 11 8 20 18 22 20 19 23 25 25
15 18 19 20 18 18 24 18 16 23 22 13 18 24 10 21 26 21 26 30 34 25 25 18 25 13 22 24 17 15 17 18 19 16 13 16 17 23 26 27 30 32 32 31
14 17 18 18 23 23 26 27 20 22 21 10 10 14 22 15 15 21 27 30 34 21 27 26 23 27 20 22 21 21 17 19 14 15 12 16 14 16 17 21 24 26 30 30
14 17 17 21 20 22 22 23 22 21 22 21 12 12 12 19 16 15 29 33 28 35 22 25 23 23 22 22 18 19 19 19 15 15 19 17 15 14 16 18 21 24 26 28
15 17 15 16 21 23 22 18 19 19 21 15 15 14 11 20 19 15 23 23 31 27 25 20 18 20 17 19 19 18 20 19 18 16 16 18 21 24 24 24 25 26 28 29
13 16 16 13 17 27 25 20 21 23 23 12 13 13 11 16 25 18 12 15 10 9 13 12 15 14 14 11 14 16 16 14 14 14 17 23 22 22 22 25 27 26 27 28
13 14 18 17 21 23 30 28 32 27 23 9 5 6 8 12 13 15 15 13 9 9 11 13 13 15 16 17 13 8 8 12 19 22 24 26 26 28 29 29 28 29 32 33
15 15 18 21 17 23 30 28 30 24 18 9 4 6 12 11 10 8 8 11 11 11 11 11 11 11 11 7 8 14 17 20 22 24 25 24 25 27 29 31 33 34 35 36
16 16 22 21 24 36 34 26 27 22 12 6 6 8 11 14 14 12 14 13 12 11 10 9 7 6 4 5 5 7 11 13 17 21 24 25 27 26 25 24 26 29 31 34
18 27 23 28 37 35 27 30 25 22 14 9 7 12 12 17 17 16 12 11 10 7 8 7 5 6 6 4 4 6 9 12 14 14 15 18 20 22 26 28 31 32 31 28
26 40 36 39 38 30 30 16 18 13 10 11 12 13 13 16 12 16 8 7 6 4 5 5 5 8 4 3 5 7 9 10 11 13 17 21 22 24 22 22 24 23 22 23
44 40 32 39 32 16 7 16 12 13 9 14 14 17 16 18 15 6 8 6 6 4 7 4 3 6 3 5 8 9 9 9 13 16 20 21 21 22 22 20 19 20 21 24
41 40 40 28 15 12 12 18 15 15 20 23 24 23 21 18 11 6 5 4 5 7 5 3 4 4 3 5 7 9 12 12 10 11 15 16 21 25 23 21 22 23 24 26
37 29 18 10 8 10 9 23 25 24 26 28 24 24 20 16 9 5 4 6 6 5 4 2 3 3 4 6 9 12 12 11 9 12 16 14 16 19 20 22 24 25 25 24
18 12 7 8 8 14 10 21 25 23 26 30 26 23 18 15 5 5 4 6 4 5 3 2 1 2 4 8 12 14 15 15 13 13 13 14 17 19 19 19 21 22 25 26
7 6 10 11 12 17 18 22 23 27 28 29 25 15 9 7 4 5 5 7 4 7 5 2 0 4 7 12 15 17 19 22 23 22 21 22 24 23 24 22 23 22 24 26
8 9 10 12 15 17 20 27 22 25 27 31 18 11 9 7 5 7 8 6 7 6 4 3 4 7 12 16 20 23 25 26 26 27 29 31 30 29 29 29 27 29 28 28

GFSNW_700_spd_372.txt.gz
Wind_Speed
32 31 31 30 30 28 29 30 32 27 29 34 43 49 53 59 54 41 33 34 25 43 21 33 38 35 22 19 25 42 45 27 25 23 17 21 35 36 33 24 9 11 12 22
31 29 28 27 27 26 28 31 33 35 26 40 41 48 48 53 39 33 36 30 26 24 41 19 32 41 34 28 26 41 43 32 21 25 34 32 26 28 30 34 29 31 15 16
31 30 30 29 27 23 28 30 32 26 30 41 35 38 48 50 54 45 29 29 33 22 27 35 14 20 26 35 31 22 34 41 46 31 16 31 37 35 26 24 23 25 32 30
30 31 30 29 26 23 26 32 34 32 19 38 40 41 45 47 41 57 40 31 30 27 22 24 29 15 18 26 34 35 30 40 42 42 41 20 22 31 32 31 31 26 27 32
30 28 28 26 25 24 29 35 34 34 36 34 30 37 37 41 28 32 58 36 27 29 27 20 20 23 17 16 20 26 29 26 35 37 38 41 38 33 31 27 30 31 26 19
29 28 27 26 23 26 32 34 35 37 31 25 28 43 39 36 35 33 49 48 47 28 37 27 18 15 17 14 10 14 21 28 23 28 34 35 31 39 33 31 30 31 31 27
29 27 27 23 24 27 31 32 32 30 34 31 29 29 30 33 35 38 40 45 44 51 43 33 27 20 21 19 18 15 17 20 19 15 22 5 29 33 34 33 31 29 25 21
27 24 24 21 23 26 26 30 31 34 35 33 40 33 29 18 40 37 33 29 36 44 34 24 23 30 25 23 27 27 23 18 13 13 21 10 14 23 32 33 29 26 22 22
24 23 20 22 23 25 25 27 30 25 29 31 31 34 28 24 17 31 45 38 27 37 38 30 23 18 22 14 22 29 30 26 23 14 7 8 14 20 25 24 25 24 23 24
21 24 18 21 23 24 25 27 32 29 31 30 24 19 21 17 23 20 19 41 34 33 36 36 28 28 31 19 25 21 28 30 29 24 12 9 13 21 23 23 24 23 22 23
22 19 18 22 21 22 26 30 21 27 31 32 25 23 24 18 19 25 20 40 39 33 38 37 22 19 36 28 22 29 31 27 26 30 21 12 16 24 28 24 24 19 17 16
19 19 18 21 22 23 26 31 23 30 26 23 18 21 12 16 16 32 22 44 39 31 36 22 32 17 30 35 26 24 22 25 26 19 21 17 23 26 24 20 13 15 17 23
17 17 17 20 20 22 19 17 22 16 23 20 20 18 17 22 19 11 12 42 29 39 39 25 24 26 24 29 28 28 25 18 13 19 22 18 21 22 23 20 20 26 25 25
16 16 16 16 19 20 19 17 24 18 17 22 9 13 13 15 20 11 10 16 28 32 46 35 25 29 24 25 25 27 28 26 18 14 13 13 15 17 18 19 20 20 21 22
14 12 13 15 15 20 17 19 23 17 23 9 23 15 10 10 11 13 11 11 16 18 16 24 22 22 24 24 20 22 21 23 23 22 20 23 22 21 19 17 17 19 21 22
13 11 14 20 10 18 21 20 23 18 22 18 7 11 6 13 14 14 19 16 20 21 22 23 21 23 18 22 13 16 23 21 15 15 18 19 19 19 20 21 22 21 21 22
13 10 13 15 9 13 18 16 18 21 20 13 7 6 8 10 22 22 20 18 10 13 17 10 16 16 14 12 14 20 14 14 14 16 18 19 22 24 23 24 24 23 25 27
12 12 9 11 12 8 18 18 18 24 19 11 4 3 11 12 10 12 16 17 13 9 8 11 12 10 7 6 18 17 19 19 18 18 20 22 23 25 27 27 28 29 31 32
14 12 8 11 11 11 21 21 26 22 13 8 5 5 7 9 10 11 12 8 7 9 11 12 13 12 5 13 16 16 16 17 19 20 21 22 22 23 23 24 25 26 27 29
15 13 15 20 12 14 23 30 19 17 13 9 6 10 10 16 15 13 12 9 8 7 10 13 10 11 12 10 8 8 9 11 13 14 14 14 14 15 16 17 19 21 23 24
21 20 21 16 18 23 28 13 12 10 9 12 11 11 11 18 15 17 8 7 6 4 9 8 7 12 11 8 6 6 6 8 9 9 10 11 13 15 17 19 19 19 18 17
22 31 16 26 30 18 7 13 10 10 9 13 14 15 18 17 16 6 7 5 5 4 11 5 7 14 8 5 3 2 1 4 9 13 14 14 15 17 17 17 19 19 19 19
27 27 31 29 16 12 10 15 12 11 18 22 23 22 20 18 10 7 5 3 5 15 5 5 11 12 7 4 2 1 3 3 3 5 11 15 18 20 17 18 21 24 24 23
37 24 20 12 9 7 5 13 21 16 20 24 24 23 16 16 8 6 4 8 6 4 4 5 10 8 5 1 3 5 7 8 7 8 8 10 13 16 17 18 21 24 25 26
12 12 10 10 9 12 10 16 22 18 23 27 27 22 19 14 6 4 6 6 4 4 7 10 9 6 4 3 5 8 10 12 12 13 15 16 17 18 18 19 21 24 25 26
10 6 9 10 11 15 13 20 22 25 30 28 22 14 10 6 5 4 4 8 4 10 11 9 6 4 2 4 8 11 13 15 16 17 19 20 22 25 28 29 29 30 32 31
9 9 7 9 13 12 20 25 24 28 29 26 16 7 7 8 4 5 8 7 13 11 8 6 3 1 4 6 9 13 16 19 22 23 24 24 24 26 29 32 32 33 34 34

GFSNW_700_spd_378.txt.gz
Wind_Speed
36 35 33 31 29 29 29 30 31 24 18 18 21 30 30 33 37 33 36 39 28 31 30 28 43 46 41 23 32 37 48 35 32 34 31 34 41 40 36 27 26 33 28 24
36 34 32 29 25 21 20 30 33 31 23 30 28 30 33 33 38 37 38 39 41 33 33 28 30 41 40 32 26 32 36 44 32 29 24 34 39 43 41 38 29 34 23 26
36 34 31 29 24 20 22 29 33 29 27 31 29 30 35 36 31 36 39 43 33 40 41 30 21 26 35 37 34 35 33 44 47 35 52 35 32 39 42 41 38 32 39 25
36 33 31 28 24 22 26 30 37 35 25 29 30 28 33 33 34 33 36 37 43 43 40 40 34 32 28 25 34 38 37 41 45 53 45 28 34 37 40 45 51 41 39 35
35 33 31 30 27 25 30 33 36 37 41 33 33 36 40 37 40 33 48 32 37 38 52 41 30 22 18 25 21 29 37 38 41 42 40 40 34 33 38 45 44 48 41 35
33 32 31 29 28 29 32 33 37 38 44 35 33 33 31 31 29 28 31 38 38 37 40 43 44 34 27 19 16 10 23 37 29 37 34 40 36 38 39 36 37 38 42 40
33 28 27 27 28 27 30 31 38 45 49 35 38 34 32 34 35 39 26 36 31 34 24 34 42 37 33 31 22 15 14 31 32 31 29 22 40 40 39 36 35 35 34 28
33 27 29 29 29 28 29 32 42 46 43 34 32 29 30 35 33 37 34 33 38 36 31 32 28 42 34 35 27 20 23 21 27 28 28 19 24 23 39 39 39 32 30 24
29 26 29 30 28 26 28 34 37 38 35 37 32 34 31 33 37 34 26 25 26 27 28 32 28 19 20 14 12 24 21 23 21 24 26 24 31 21 26 23 37 36 35 32
29 26 28 28 29 32 28 21 30 33 36 33 33 34 32 29 34 36 26 23 18 34 30 31 37 29 11 8 17 17 20 19 18 19 25 26 21 24 22 25 24 27 27 33
28 27 27 27 29 31 36 20 27 30 35 35 35 34 31 33 35 34 28 32 15 35 33 24 33 29 42 28 18 16 20 18 16 14 9 11 20 20 22 23 26 15 23 30
27 26 23 25 26 26 24 24 22 28 32 38 29 26 28 35 37 34 37 33 16 23 26 28 25 33 33 40 37 23 24 22 21 16 12 9 15 16 26 22 21 19 20 28
26 23 21 24 24 23 22 22 20 23 27 31 33 29 25 35 33 31 32 26 22 14 25 29 27 29 42 36 43 32 27 25 23 20 23 22 22 17 16 22 13 16 22 27
23 21 22 24 20 21 21 21 22 24 25 30 31 29 33 23 29 29 24 24 23 21 20 31 33 17 31 40 34 39 34 29 29 28 24 25 25 29 30 28 29 27 25 24
17 20 21 21 18 17 18 23 21 22 25 19 18 20 23 25 19 18 20 23 23 16 14 18 36 31 22 26 23 24 30 24 27 27 35 30 24 25 28 23 26 24 23 26
16 19 19 16 17 23 9 15 17 19 24 27 27 22 14 15 21 21 20 18 22 21 23 25 32 36 25 23 23 26 35 35 32 30 28 32 29 28 30 28 27 25 25 22
19 15 14 12 14 14 13 14 12 16 17 22 17 20 23 19 17 17 18 14 8 12 11 13 25 36 32 23 12 25 31 33 31 27 26 26 27 25 28 27 23 21 18 18
13 11 12 5 12 15 15 17 17 14 17 17 9 12 10 9 11 16 15 5 4 5 8 14 23 31 31 10 19 27 26 26 27 25 23 20 18 22 21 25 21 16 15 17
11 10 8 6 10 10 10 14 16 15 20 8 9 8 5 6 11 13 7 1 5 10 11 10 12 11 8 20 30 32 30 30 29 26 26 19 15 15 13 8 9 14 16 17
8 7 7 7 6 6 6 12 11 21 12 12 10 8 4 5 13 11 8 5 6 8 9 13 14 19 17 18 17 21 20 20 16 12 15 15 14 13 14 15 16 17 18 20
7 9 9 2 8 4 7 7 10 9 7 13 10 9 4 4 8 6 5 4 4 4 4 5 6 11 13 13 12 13 14 10 9 10 13 15 16 16 17 18 19 20 22 23
10 9 8 6 12 6 5 9 7 7 7 9 13 11 11 10 8 4 4 3 3 2 5 6 6 12 13 12 10 10 10 9 9 8 8 10 12 15 16 17 17 18 19 18
8 5 3 5 6 6 6 8 8 6 10 14 15 13 12 9 3 2 1 2 3 11 4 5 10 15 13 14 14 13 13 12 11 8 6 5 4 5 7 10 13 16 18 18
7 9 5 4 3 4 4 11 14 7 8 16 16 15 10 8 3 2 3 8 5 4 4 6 22 17 16 13 12 12 13 12 10 8 6 5 3 4 5 9 12 14 15 18
8 5 5 5 4 6 10 10 13 11 12 18 17 12 9 6 2 2 4 3 3 4 10 27 24 21 19 17 16 15 15 13 12 10 8 8 7 7 7 8 10 12 15 18
8 5 5 5 8 7 7 11 15 13 19 20 14 6 5 1 2 3 3 3 4 22 27 26 23 20 17 15 14 12 11 9 8 7 7 8 9 10 11 13 15 17 19 21
6 8 10 12 9 8 8 10 15 18 24 16 8 4 3 4 3 3 4 16 26 27 26 24 21 18 15 13 11 8 5 4 4 5 7 9 12 13 15 16 18 21 23 26

GFSNW_700_spd_381.txt.gz
Wind_Speed
34 33 33 33 33 32 31 31 28 24 22 21 18 24 23 28 29 25 29 29 32 34 39 38 39 44 44 42 45 45 40 44 46 49 36 40 41 43 47 28 36 37 35 32
35 34 33 32 31 29 27 28 30 26 27 25 24 26 31 31 35 32 32 33 33 34 39 43 41 41 39 44 51 49 39 44 43 40 47 37 43 48 41 42 35 40 26 33
36 36 33 31 29 26 23 24 26 14 19 23 26 27 31 34 30 33 31 35 32 35 40 43 44 41 42 40 46 49 46 42 43 37 44 48 42 44 45 43 35 43 41 32
36 35 34 31 28 25 23 26 34 24 23 23 25 26 29 30 33 29 29 33 34 34 40 43 47 41 43 41 37 42 45 45 40 47 50 47 46 43 43 45 54 41 45 37
34 35 33 31 28 26 27 33 35 32 34 29 32 35 39 38 38 35 37 34 36 37 40 37 46 39 44 42 26 28 37 43 46 49 48 50 51 48 42 44 52 50 45 43
36 34 33 30 22 25 27 30 34 36 40 36 37 41 37 36 35 36 32 32 32 34 36 39 35 41 47 50 35 24 22 23 46 47 50 46 48 51 46 45 44 49 47 48
35 33 31 29 24 26 29 30 34 37 43 39 40 36 36 37 37 42 38 35 34 35 29 36 38 43 48 53 47 34 30 28 30 43 47 35 44 47 50 44 40 41 44 41
34 33 33 33 27 30 32 30 35 37 43 37 35 33 36 36 34 36 35 35 34 33 35 37 41 34 39 50 49 36 34 30 21 36 43 35 41 42 43 46 47 40 36 34
34 34 33 31 28 32 33 33 33 38 45 50 38 39 40 35 32 34 36 33 35 33 35 35 33 28 34 42 42 42 41 37 39 27 32 29 39 38 33 36 44 42 34 32
30 32 31 29 29 33 33 35 32 38 46 44 41 40 33 28 28 33 31 34 32 23 28 42 39 42 29 39 33 25 32 39 39 36 31 32 43 35 32 39 38 34 37 37
31 30 28 30 30 31 31 35 33 38 40 45 33 36 34 32 30 34 32 34 35 31 35 35 33 28 38 31 38 41 25 25 30 35 33 19 28 25 29 26 26 22 31 33
32 31 30 28 28 28 29 35 30 33 34 44 31 34 36 36 34 34 35 39 39 40 32 14 16 31 29 36 11 38 14 25 19 26 34 22 20 19 26 30 26 26 25 25
32 30 29 27 26 24 26 30 27 30 31 32 30 29 23 29 29 27 33 39 38 38 29 18 21 21 31 36 43 32 27 23 17 12 34 33 22 20 24 25 25 26 27 33
27 26 27 22 22 24 26 25 23 24 29 29 31 21 20 20 24 29 32 29 33 34 30 33 32 24 26 30 30 42 37 23 26 20 15 28 26 12 9 13 11 17 23 26
23 25 18 18 20 23 22 22 22 25 25 26 26 18 18 24 16 22 26 29 27 31 32 31 31 16 29 30 30 37 28 36 29 25 20 14 12 9 15 21 16 12 15 14
17 14 14 17 20 20 17 22 16 23 27 27 30 21 26 22 20 23 23 24 26 26 29 30 28 26 13 17 26 29 32 25 21 25 13 22 22 19 24 25 30 34 34 29
10 14 17 18 19 16 18 19 9 8 17 23 22 20 21 17 19 19 18 18 18 18 20 24 27 20 19 23 17 12 18 26 21 14 23 24 19 23 26 24 25 24 24 25
10 18 16 17 18 8 17 19 18 16 15 22 13 13 18 22 15 8 13 13 12 7 9 9 15 18 16 10 6 12 13 15 19 25 19 19 26 27 28 27 27 29 31 29
12 10 13 11 8 13 15 16 16 17 17 8 13 13 11 8 10 13 2 3 1 5 10 4 2 6 2 13 15 20 25 24 15 23 24 23 27 28 23 24 26 28 27 25
7 9 6 5 5 10 9 12 12 11 15 19 14 14 7 9 6 7 3 2 3 3 7 12 15 17 8 14 19 18 21 27 30 31 29 26 19 17 19 19 15 14 11 9
3 6 8 9 4 9 8 7 9 8 6 12 18 13 3 8 2 1 1 2 4 2 5 3 7 14 17 21 18 19 22 17 21 21 21 21 20 18 15 13 8 6 8 10
6 9 9 8 2 6 6 8 6 7 4 6 7 6 4 4 6 3 3 3 3 3 4 4 6 8 14 22 20 19 18 18 16 13 10 7 6 10 10 9 9 9 11 12
7 5 5 2 4 6 3 5 6 4 5 4 7 5 4 3 2 1 1 2 2 6 5 5 10 10 11 14 15 17 16 14 12 11 9 8 8 7 6 5 6 7 9 12
6 6 4 4 3 3 2 4 5 8 4 6 8 7 2 3 1 2 2 3 4 3 4 8 14 15 16 16 17 17 18 17 16 14 13 11 9 6 5 3 2 3 5 8
5 4 3 4 2 3 5 7 9 8 3 10 8 5 2 2 2 2 2 3 4 5 8 19 18 18 18 19 20 19 19 18 16 14 12 10 9 7 6 6 6 7 8 10
6 5 4 3 4 4 3 5 8 8 9 10 5 3 2 1 1 3 3 2 4 15 17 20 21 20 19 18 17 15 14 12 10 8 7 6 6 6 7 8 10 12 13 15
6 6 7 6 5 4 4 6 7 9 12 6 3 2 2 1 2 2 3 6 17 23 24 23 22 20 18 15 13 10 8 6 4 2 1 3 5 7 10 12 14 16 18 20